Location: Asheville, NC
(35.6000°N, 82.5500°W)
Time: 11:12:22
(UTC-04:00)

Tiangong 2 - Pass Details

Date: 08 October 2017
Orbit: 388 x 391 km, 42.8° (Epoch: 23 October)

Event Time Altitude Azimuth Distance (km) Brightness Sun altitude
Exits shadow 05:50:43 38° 147° (SSE) 603 2.2 -21.2°
Maximum altitude 05:50:44 38° 147° (SSE) 603 2.2 -21.1°
Drops below altitude 10° 05:53:44 10° 77° (ENE) 1,417 5.1 -20.5°
Sets 05:55:53 0° 69° (ENE) 2,275 6.4 -20.1°
